FW7092 Weather Reports


time (UTC)temp
F
wind
direction
speed
knots
gust
knots
rain 1hr
in
rain 24hr
in
rain mn
in
humidity
%
barometer
mb
20260503232700 53 207 9.6 15.6 0.00 0.00 0.00 67 1014.5
20260503232157 53 214 10.4 13.9 0.00 0.00 0.00 67 1014.8
20260503231655 53 245 12.2 18.2 0.00 0.00 0.00 66 1014.7
20260503231151 54 250 12.2 18.2 0.00 0.00 0.00 66 1014.7
20260503230648 54 239 13.0 20.0 0.00 0.00 0.00 65 1014.4
20260503230145 56 238 14.8 20.9 0.00 0.00 0.00 62 1014.4
20260503225642 57 247 13.9 18.2 0.00 0.00 0.00 61 1014.4
20260503225142 56 254 12.2 18.2 0.00 0.00 0.00 61 1014.3
20260503224640 58 258 15.6 19.1 0.00 0.00 0.00 59 1014.3
20260503224138 59 259 14.8 20.0 0.00 0.00 0.00 57 1014.2
20260503223636 59 241 12.2 18.2 0.00 0.00 0.00 58 1014.1
20260503223131 59 237 16.5 21.7 0.00 0.00 0.00 56 1014.2
20260503222629 59 238 16.5 20.9 0.00 0.00 0.00 53 1014.1
20260503222126 61 220 10.4 14.8 0.00 0.00 0.00 49 1014.0
20260503221625 61 244 10.4 14.8 0.00 0.00 0.00 46 1014.0
20260503221122 61 238 12.2 18.2 0.00 0.00 0.00 46 1014.1
20260503220619 61 252 12.2 18.2 0.00 0.00 0.00 45 1014.1
20260503220115 60 246 13.0 17.4 0.00 0.00 0.00 46 1014.0
20260503215612 60 248 14.8 17.4 0.00 0.00 0.00 44 1013.9
20260503215109 61 223 13.0 18.2 0.00 0.00 0.00 45 1014.2
20260503214608 61 228 12.2 13.9 0.00 0.00 0.00 45 1014.0
20260503214103 61 241 12.2 18.2 0.00 0.00 0.00 45 1014.2
20260503213602 61 222 13.0 23.5 0.00 0.00 0.00 45 1014.1
20260503213058 60 212 14.8 17.4 0.00 0.00 0.00 45 1014.2
20260503212556 61 230 11.3 15.6 0.00 0.00 0.00 46 1014.2
20260503212053 60 237 11.3 18.2 0.00 0.00 0.00 44 1014.1
20260503211550 60 212 11.3 19.1 0.00 0.00 0.00 48 1014.3
20260503211045 60 204 11.3 19.1 0.00 0.00 0.00 46 1014.3
20260503210543 61 225 9.6 13.0 0.00 0.00 0.00 46 1014.1
20260503210038 62 228 14.8 18.2 0.00 0.00 0.00 43 1014.4
20260503205535 61 243 12.2 20.0 0.00 0.00 0.00 45 1014.1
20260503205032 62 214 18.2 21.7 0.00 0.00 0.00 42 1014.3
20260503204529 62 248 13.9 20.0 0.00 0.00 0.00 45 1014.4
20260503204026 61 215 14.8 15.6 0.00 0.00 0.00 43 1014.4
20260503203523 61 229 17.4 20.9 0.00 0.00 0.00 43 1014.6
20260503203020 62 222 14.8 21.7 0.00 0.00 0.00 44 1014.5
20260503202518 62 229 15.6 20.9 0.00 0.00 0.00 44 1014.6
20260503202015 62 218 12.2 19.1 0.00 0.00 0.00 44 1014.5
20260503201514 62 243 17.4 21.7 0.00 0.00 0.00 42 1014.7
20260503201010 62 230 15.6 19.1 0.00 0.00 0.00 43 1014.7
20260503200506 62 231 12.2 17.4 0.00 0.00 0.00 43 1014.6
20260503200003 62 230 12.2 17.4 0.00 0.00 0.00 43 1014.8
20260503195500 62 236 9.6 15.6 0.00 0.00 0.00 45 1014.7
20260503194957 61 221 13.9 20.0 0.00 0.00 0.00 44 1014.8
20260503194455 61 209 14.8 19.1 0.00 0.00 0.00 44 1014.8
20260503193949 61 233 13.9 20.0 0.00 0.00 0.00 44 1015.0
20260503193445 61 234 12.2 19.1 0.00 0.00 0.00 46 1015.1
20260503192941 61 237 15.6 20.9 0.00 0.00 0.00 44 1014.8
20260503192437 61 235 13.9 15.6 0.00 0.00 0.00 44 1015.2
20260503191933 61 239 12.2 17.4 0.00 0.00 0.00 45 1015.2
20260503191431 62 239 12.2 21.7 0.00 0.00 0.00 48 1015.4
20260503190927 62 217 14.8 18.2 0.00 0.00 0.00 47 1015.5
20260503190425 62 241 12.2 15.6 0.00 0.00 0.00 44 1015.4
20260503185921 62 220 16.5 19.1 0.00 0.00 0.00 45 1015.5
20260503185418 61 227 15.6 19.1 0.00 0.00 0.00 46 1015.5
20260503184917 61 211 15.6 19.1 0.00 0.00 0.00 45 1015.8
20260503184414 61 238 11.3 17.4 0.00 0.00 0.00 48 1016.0
20260503183910 61 225 16.5 20.0 0.00 0.00 0.00 44 1015.9
20260503183407 61 211 10.4 15.6 0.00 0.00 0.00 42 1015.9
20260503182904 61 232 11.3 19.1 0.00 0.00 0.00 48 1016.0
20260503182403 61 241 14.8 15.6 0.00 0.00 0.00 46 1016.2
20260503181859 62 255 11.3 15.6 0.00 0.00 0.00 46 1016.0
20260503181356 60 197 12.2 14.8 0.00 0.00 0.00 46 1016.3
20260503180853 60 244 12.2 17.4 0.00 0.00 0.00 46 1016.2
20260503180351 60 234 12.2 18.2 0.00 0.00 0.00 44 1016.4
20260503175847 62 246 13.0 19.1 0.00 0.00 0.00 46 1016.4
20260503175345 61 204 12.2 21.7 0.00 0.00 0.00 47 1016.3
20260503174840 60 230 11.3 19.1 0.00 0.00 0.00 47 1016.5
20260503174339 61 231 11.3 15.6 0.00 0.00 0.00 46 1016.5
20260503173834 61 248 12.2 19.1 0.00 0.00 0.00 47 1016.7
20260503173331 61 246 16.5 19.1 0.00 0.00 0.00 42 1016.6
20260503172827 61 192 10.4 15.6 0.00 0.00 0.00 46 1016.6
20260503172325 61 242 10.4 18.2 0.00 0.00 0.00 49 1016.8
20260503171821 60 252 14.8 20.0 0.00 0.00 0.00 46 1016.9
20260503171318 60 224 13.0 18.2 0.00 0.00 0.00 48 1016.8
20260503170815 61 244 12.2 15.6 0.00 0.00 0.00 49 1016.9
20260503170312 60 233 13.0 15.6 0.00 0.00 0.00 47 1016.9
20260503150704 55 242 10.4 12.2 0.00 0.00 0.00 56 1018.1
20260503150200 54 231 7.8 11.3 0.00 0.00 0.00 59 1018.2
20260503140124 50 231 11.3 18.2 0.00 0.00 0.00 62 1018.6
20260503131054 47 235 8.7 11.3 0.00 0.00 0.00 64 1018.8
20260503130551 47 231 7.8 12.2 0.00 0.00 0.00 66 1018.7
20260503110442 34 213 4.3 5.2 0.00 0.00 0.00 83 1018.3
20260503090333 33 216 1.7 1.7 0.00 0.00 0.00 85 1018.8
20260503081300 33 214 1.7 1.7 0.00 0.00 0.00 87 1018.9
20260503080756 33 217 0.0 0.9 0.00 0.00 0.00 86 1018.9
20260503080254 33 217 0.9 1.7 0.00 0.00 0.00 86 1018.8
20260503072730 33 214 0.9 0.9 0.00 0.00 0.00 85 1019.0
20260503072226 34 217 0.9 0.9 0.00 0.00 0.00 85 1018.9
20260503071723 34 215 0.9 1.7 0.00 0.00 0.00 85 1019.0
20260503071220 34 215 0.9 0.9 0.00 0.00 0.00 85 1019.1
20260503070717 34 214 0.9 0.9 0.00 0.00 0.00 84 1019.0
20260503070215 34 211 0.9 0.9 0.00 0.00 0.00 84 1019.1
20260503060139 35 217 0.9 0.9 0.00 0.00 0.00 83 1019.3
20260503054626 35 214 0.9 1.7 0.00 0.00 0.00 82 1019.4
20260503054123 35 216 0.9 0.9 0.00 0.00 0.00 83 1019.3
20260503053621 35 216 0.9 0.9 0.00 0.00 0.00 83 1019.3
20260503053120 35 212 0.9 1.7 0.00 0.00 0.00 83 1019.3
20260503052616 35 209 0.9 1.7 0.00 0.00 0.00 82 1019.5
20260503052112 36 209 0.9 0.9 0.00 0.00 0.00 81 1019.5
20260503051608 36 213 0.9 0.9 0.00 0.00 0.00 81 1019.5
20260503051106 36 215 0.9 0.9 0.00 0.00 0.00 81 1019.6
20260503050602 36 213 0.9 0.9 0.00 0.00 0.00 81 1019.6
20260503050059 37 212 0.9 1.7 0.00 0.00 0.00 81 1019.4
20260503045556 36 212 1.7 1.7 0.00 0.00 0.00 81 1019.5
20260503045053 37 217 1.7 1.7 0.00 0.00 0.00 80 1019.7
20260503044549 37 213 1.7 1.7 0.00 0.00 0.00 81 1019.5
20260503044047 37 213 0.9 1.7 0.00 0.00 0.00 81 1019.6
20260503043543 36 214 0.9 1.7 0.00 0.00 0.00 83 1019.4
20260503043040 36 214 0.9 0.9 0.00 0.00 0.00 83 1019.5
20260503042537 36 218 0.9 0.9 0.00 0.00 0.00 81 1019.6
20260503042033 37 215 0.9 1.7 0.00 0.00 0.00 80 1019.5
20260503041530 36 214 0.0 0.9 0.00 0.00 0.00 82 1019.5
20260503041028 36 217 0.9 0.9 0.00 0.00 0.00 82 1019.5
20260503040525 37 211 0.9 1.7 0.00 0.00 0.00 80 1019.6
20260503040022 38 214 1.7 1.7 0.00 0.00 0.00 77 1019.6
20260503035519 39 211 2.6 2.6 0.00 0.00 0.00 76 1019.7
20260503035017 38 207 2.6 2.6 0.00 0.00 0.00 77 1019.7
20260503034514 38 209 1.7 1.7 0.00 0.00 0.00 78 1019.7
20260503034010 40 210 1.7 1.7 0.00 0.00 0.00 76 1019.7
20260503033508 41 210 2.6 2.6 0.00 0.00 0.00 73 1019.6
20260503033006 41 208 1.7 1.7 0.00 0.00 0.00 74 1019.7
20260503032504 41 202 0.9 1.7 0.00 0.00 0.00 72 1019.7
20260503032002 41 204 0.9 0.9 0.00 0.00 0.00 72 1019.7
20260503031459 41 202 0.9 0.9 0.00 0.00 0.00 72 1019.7
20260503030955 41 202 0.9 0.9 0.00 0.00 0.00 75 1019.4
20260503030452 41 205 0.9 0.9 0.00 0.00 0.00 77 1019.7
20260503025949 41 202 0.9 1.7 0.00 0.00 0.00 77 1019.9
20260503025446 41 208 1.7 1.7 0.00 0.00 0.00 76 1019.8
20260503024943 42 211 1.7 1.7 0.00 0.00 0.00 77 1019.9
20260503024440 42 210 1.7 1.7 0.00 0.00 0.00 76 1019.7
20260503023937 42 212 1.7 1.7 0.00 0.00 0.00 79 1019.9
20260503023434 42 208 1.7 1.7 0.00 0.00 0.00 78 1019.7
20260503022931 43 206 0.9 0.9 0.00 0.00 0.00 78 1019.9
20260503022426 43 208 1.7 1.7 0.00 0.00 0.00 72 1019.9
20260503021922 44 208 0.9 1.7 0.00 0.00 0.00 68 1019.9
20260503021418 44 203 0.9 0.9 0.00 0.00 0.00 65 1019.9
20260503020916 44 204 0.9 1.7 0.00 0.00 0.00 66 1019.8
20260503020414 44 205 0.9 0.9 0.00 0.00 0.00 64 1019.9
20260503015909 44 201 0.0 0.0 0.00 0.00 0.00 64 1019.9
20260503015407 44 200 0.0 0.0 0.00 0.00 0.00 64 1019.9
20260503014902 44 208 0.9 0.9 0.00 0.00 0.00 66 1019.5
20260503014400 44 207 0.9 0.9 0.00 0.00 0.00 67 1019.7
20260503013858 44 205 0.9 0.9 0.00 0.00 0.00 67 1019.8
20260503013354 44 204 1.7 1.7 0.00 0.00 0.00 69 1019.7
20260503012851 44 205 0.9 1.7 0.00 0.00 0.00 67 1019.7
20260503012349 44 204 0.9 0.9 0.00 0.00 0.00 67 1019.7
20260503011846 44 205 0.9 1.7 0.00 0.00 0.00 70 1019.8
20260503011343 44 204 0.9 1.7 0.00 0.00 0.00 70 1019.8
20260503010839 44 207 0.9 0.9 0.00 0.00 0.00 67 1019.8
20260503010336 44 209 0.9 0.9 0.00 0.00 0.00 66 1019.7
20260503005833 45 217 0.9 0.9 0.00 0.00 0.00 62 1019.7
20260503005331 45 217 0.0 0.9 0.00 0.00 0.00 66 1019.7
20260503004826 44 218 0.9 0.9 0.00 0.00 0.00 65 1019.6
20260503004325 44 217 0.9 0.9 0.00 0.00 0.00 67 1019.5
20260503003822 44 213 0.9 0.9 0.00 0.00 0.00 71 1019.6
20260503003318 45 217 0.0 0.0 0.00 0.00 0.00 66 1019.6
20260503002815 45 216 0.0 0.0 0.00 0.00 0.00 65 1019.6
20260503002312 45 226 0.0 0.0 0.00 0.00 0.00 62 1019.7
20260503001809 45 232 0.9 0.9 0.00 0.00 0.00 58 1019.7
20260503001305 46 228 0.9 0.9 0.00 0.00 0.00 63 1019.5
20260503000803 46 236 0.9 0.9 0.00 0.00 0.00 59 1019.5
20260503000300 46 236 0.9 0.9 0.00 0.00 0.00 58 1019.4
20260502235757 46 248 1.7 1.7 0.00 0.00 0.00 58 1019.5
20260502235255 46 249 0.9 0.9 0.00 0.00 0.00 57 1019.5
20260502234751 46 243 0.9 0.9 0.00 0.00 0.00 57 1019.2
20260502234248 46 240 0.9 0.9 0.00 0.00 0.00 57 1019.5
20260502233744 46 240 0.9 2.6 0.00 0.00 0.00 55 1019.5
20260502233241 47 247 1.7 2.6 0.00 0.00 0.00 53 1019.5